Trabzon, Turkey

3:50 AM +03 on December 05, 2016 (GMT +0300)
Trabzon

Weather History for LTCG - January, 2013

Change the Weather History Date:

Tuesday, January 1, 2013

  Actual Average Record
Temperature  
Mean Temperature 44 °F -  
Max Temperature 52 °F 52 °F 66 °F (2002)
Min Temperature 37 °F 42 °F 29 °F (2016)
Degree Days  
Heating Degree Days 20    
Moisture  
Dew Point 31 °F    
Average Humidity 59    
Maximum Humidity 76    
Minimum Humidity 38    
Precipitation  
Precipitation 0.00 in - - ()
Sea Level Pressure  
Sea Level Pressure 30.20 in    
Wind  
Wind Speed 4 mph ()    
Max Wind Speed 9 mph    
Max Gust Speed -    
Visibility 4.2 miles    
Events      
Averages and records for this station are not official NWS values.
T = Trace of Precipitation, MM = Missing Value Source: Averaged Metar Reports

Daily Weather History Graph

Daily Weather History Graph

Search for Another Location

Airport or City:

Trip Planner

Search our weather history database for the weather conditions in past years. The results will help you decide how hot, cold, wet, or windy it might be!

Date:

Astronomy

Jan. 01, 2013 Rise Set
Actual Time 6:45 AM EET 4:03 PM EET
Civil Twilight 6:14 AM EET 4:34 PM EET
Nautical Twilight 5:40 AM EET 5:08 PM EET
Astronomical Twilight 5:06 AM EET 5:42 PM EET
Moon 8:14 PM EET (1/1) 8:45 AM EET (1/1)
Length of Visible Light 10h 19m
Length of Day
9h 17m
Waning Gibbous, 85% of the Moon is Illuminated
Jan 1
Waning Gibbous
Jan 5
Last Quarter
Jan 11
New
Jan 19
First Quarter
Jan 27
Full

Hourly Weather History & Observations

Time (EET) Temp. Windchill Dew Point Humidity Pressure Visibility Wind Dir Wind Speed Gust Speed Precip Events Conditions
12:20 AM 41.0 °F 38.0 °F 23.0 °F 49% 30.18 in - SE 4.6 mph - N/A   Clear
12:50 AM 42.8 °F 40.1 °F 23.0 °F 46% 30.18 in - South 4.6 mph - N/A   Clear
1:20 AM 42.8 °F 40.1 °F 23.0 °F 46% 30.18 in - SE 4.6 mph - N/A   Clear
1:50 AM 41.0 °F 38.0 °F 24.8 °F 53% 30.18 in - South 4.6 mph - N/A   Clear
2:00 AM 41 °F - 25 °F 39% 30.20 in 12 mi South 4.6 mph - -  
2:20 AM 39.2 °F - 26.6 °F 61% 30.18 in - Variable 2.3 mph - N/A   Clear
2:50 AM 39.2 °F - 26.6 °F 61% 30.18 in - Calm Calm - N/A   Clear
3:20 AM 39.2 °F - 26.6 °F 61% 30.18 in - Calm Calm - N/A   Clear
3:50 AM 37.4 °F - 24.8 °F 60% 30.18 in - SSW 2.3 mph - N/A   Clear
4:20 AM 39.2 °F 35.0 °F 24.8 °F 56% 30.18 in - South 5.8 mph - N/A   Clear
4:50 AM 39.2 °F 35.9 °F 28.4 °F 65% 30.18 in - SSW 4.6 mph - N/A   Clear
5:20 AM 39.2 °F 35.0 °F 24.8 °F 56% 30.18 in - South 5.8 mph - N/A   Clear
5:50 AM 39.2 °F 34.2 °F 24.8 °F 56% 30.18 in - South 6.9 mph - N/A   Clear
6:20 AM 39.2 °F 35.0 °F 28.4 °F 65% 30.18 in - SSW 5.8 mph - N/A   Clear
6:50 AM 39.2 °F 37.0 °F 30.2 °F 70% 30.18 in - SW 3.5 mph - N/A   Clear
7:20 AM 41.0 °F 37.1 °F 32.0 °F 70% 30.18 in - SSW 5.8 mph - N/A   Clear
7:50 AM 42.8 °F 40.1 °F 28.4 °F 57% 30.18 in 3.7 mi South 4.6 mph - N/A   Unknown
8:00 AM 43 °F - 29 °F 45% 30.20 in 4 mi South 4.6 mph - -   Smoke
8:20 AM 44.6 °F - 33.8 °F 66% 30.18 in - Calm Calm - N/A   Clear
8:50 AM 48.2 °F - 32.0 °F 54% 30.18 in 4.3 mi Calm Calm - N/A   Unknown
9:20 AM 48.2 °F - 30.2 °F 50% 30.21 in - Variable 2.3 mph - N/A   Clear
9:50 AM 51.8 °F - 26.6 °F 38% 30.21 in - Variable 2.3 mph - N/A   Clear
10:20 AM 50.0 °F - 32.0 °F 50% 30.21 in - WNW 6.9 mph - N/A   Clear
10:50 AM 50.0 °F - 32.0 °F 50% 30.21 in - WNW 6.9 mph - N/A   Clear
11:20 AM 50.0 °F - 33.8 °F 54% 30.18 in - NW 5.8 mph - N/A   Clear
11:50 AM 51.8 °F - 32.0 °F 47% 30.18 in - NW 4.6 mph - N/A   Clear
12:20 PM 51.8 °F - 33.8 °F 50% 30.18 in - NW 4.6 mph - N/A   Clear
12:50 PM 50.0 °F - 33.8 °F 54% 30.18 in - WNW 3.5 mph - N/A   Clear
1:20 PM 51.8 °F - 35.6 °F 54% 30.18 in - Variable 1.2 mph - N/A   Clear
1:50 PM 51.8 °F - 35.6 °F 54% 30.18 in - Calm Calm - N/A   Clear
2:00 PM 51 °F - 36 °F 44% 30.20 in 12 mi Calm Calm - -   Clear
2:20 PM 51.8 °F - 37.4 °F 58% 30.18 in - Calm Calm - N/A   Clear
2:50 PM 51.8 °F - 35.6 °F 54% 30.18 in - Calm Calm - N/A   Clear
3:20 PM 50.0 °F - 35.6 °F 58% 30.21 in - Calm Calm - N/A   Clear
3:50 PM 46.4 °F - 35.6 °F 66% 30.21 in 1.5 mi Calm Calm - N/A   Smoke
4:20 PM 44.6 °F - 35.6 °F 71% 30.21 in 1.2 mi Calm Calm - N/A   Smoke
4:50 PM 44.6 °F 41.4 °F 35.6 °F 71% 30.21 in 1.2 mi SSW 5.8 mph - N/A   Smoke
5:20 PM 42.8 °F - 35.6 °F 76% 30.21 in 1.5 mi Variable 2.3 mph - N/A   Smoke
5:50 PM 42.8 °F 40.1 °F 33.8 °F 70% 30.21 in 2.5 mi SSW 4.6 mph - N/A   Smoke
6:20 PM 42.8 °F 39.3 °F 35.6 °F 76% 30.21 in - SSW 5.8 mph - N/A   Smoke
6:50 PM 42.8 °F 40.1 °F 35.6 °F 76% 30.24 in 3.7 mi SSW 4.6 mph - N/A   Unknown
7:20 PM 44.6 °F 41.4 °F 37.4 °F 76% 30.24 in 4.3 mi SW 5.8 mph - N/A   Unknown
7:50 PM 44.6 °F 41.4 °F 35.6 °F 71% 30.24 in 3.7 mi SSW 5.8 mph - N/A   Unknown
8:00 PM 45 °F - 35 °F 57% 30.25 in 4 mi SSW 5.8 mph - -   Smoke
8:20 PM 44.6 °F 40.7 °F 33.8 °F 66% 30.24 in 3.7 mi SSW 6.9 mph - N/A   Unknown
8:50 PM 44.6 °F 40.7 °F 30.2 °F 57% 30.24 in 4.3 mi SW 6.9 mph - N/A   Unknown
9:20 PM 46.4 °F 42.9 °F 28.4 °F 50% 30.24 in 3.7 mi SW 6.9 mph - N/A   Unknown
9:50 PM 46.4 °F 41.9 °F 24.8 °F 43% 30.24 in 5.0 mi SW 9.2 mph - N/A   Unknown
10:20 PM 42.8 °F 38.6 °F 26.6 °F 53% 30.24 in - SW 6.9 mph - N/A   Clear
10:50 PM 44.6 °F 40.7 °F 35.6 °F 71% 30.24 in - SSW 6.9 mph - N/A   Clear
11:20 PM 42.8 °F 40.1 °F 35.6 °F 76% 30.24 in - SW 4.6 mph - N/A   Clear
11:50 PM 42.8 °F 39.3 °F 33.8 °F 70% 30.24 in - SSW 5.8 mph - N/A   Clear